Glasgow, MT

7:12 PM MST on February 09, 2016 (GMT -0700)
Wokal-Glasgow International

Weather History for KGGW - August, 2013

Change the Weather History Date:

Wednesday, August 7, 2013

  Actual Average Record
Temperature  
Mean Temperature 61 °F 72 °F  
Max Temperature 71 °F 87 °F 108 °F (1949)
Min Temperature 50 °F 58 °F 41 °F (1932)
Degree Days  
Heating Degree Days 4 0  
Month to date heating degree days 4 0  
Since 1 June heating degree days 98 123  
Since 1 July heating degree days 14 18  
Cooling Degree Days 0 8  
Month to date cooling degree days 20 56  
Year to date cooling degree days 250 355  
Since 1 June cooling degree days 241 338  
Growing Degree Days 10 (Base 50)    
Moisture  
Dew Point 50 °F    
Average Humidity 68    
Maximum Humidity 100    
Minimum Humidity 35    
Precipitation  
Precipitation 0.02 in 0.04 in 0.95 in (1952)
Month to date precipitation 0.08 0.31  
Year to date precipitation 12.49 8.24  
Snow  
Snow 0.00 in 0.00 in T in (2003)
Month to date snowfall 0.0 0.0  
Since 1 June snowfall 0.0 0.0  
Since 1 July snowfall 0.0 0.0  
Snow Depth 0.00 in    
Sea Level Pressure  
Sea Level Pressure 30.06 in    
Wind  
Wind Speed 10 mph (East)    
Max Wind Speed 17 mph    
Max Gust Speed 22 mph    
Visibility 7 miles    
Events Fog , Rain    
T = Trace of Precipitation, MM = Missing Value Source: NWS Daily Summary

Daily Weather History Graph

Daily Weather History Graph

Search for Another Location

Airport or City:

Trip Planner

Search our weather history database for the weather conditions in past years. The results will help you decide how hot, cold, wet, or windy it might be!

Date:

Astronomy

Aug. 07, 2013 Rise Set
Actual Time 5:50 AM MDT 8:33 PM MDT
Civil Twilight 5:14 AM MDT 9:08 PM MDT
Nautical Twilight 4:29 AM MDT 9:53 PM MDT
Astronomical Twilight 3:35 AM MDT 10:46 PM MDT
Moon 6:50 AM MDT (8/7) 8:30 PM MDT (8/7)
Length of Visible Light 15h 53m
Length of Day
14h 42m
New Moon, 1% of the Moon is Illuminated
Aug 7
New Moon
Aug 14
First Quarter
Aug 20
Full
Aug 28
Last Quarter
Sep 5
New

Hourly Weather History & Observations

Time (MDT) Temp. Dew Point Humidity Pressure Visibility Wind Dir Wind Speed Gust Speed Precip Events Conditions
12:53 AM 53.1 °F 51.1 °F 93% 30.03 in 10.0 mi NE 5.8 mph - N/A   Clear
1:48 AM 53.6 °F 51.8 °F 94% 30.05 in 10.0 mi Calm Calm - N/A   Mostly Cloudy
1:53 AM 53.1 °F 51.1 °F 93% 30.04 in 10.0 mi East 3.5 mph - N/A   Mostly Cloudy
2:24 AM 51.8 °F 51.8 °F 100% 30.05 in 10.0 mi NE 5.8 mph - N/A   Scattered Clouds
2:53 AM 51.1 °F 50.0 °F 96% 30.04 in 7.0 mi NE 8.1 mph - N/A   Clear
3:09 AM 53.6 °F 51.8 °F 94% 30.05 in 5.0 mi NE 9.2 mph - N/A   Scattered Clouds
3:18 AM 53.6 °F 53.6 °F 100% 30.05 in 5.0 mi NE 9.2 mph - N/A   Mostly Cloudy
3:42 AM 53.6 °F 53.6 °F 100% 30.06 in 2.0 mi NE 10.4 mph - N/A   Overcast
3:51 AM 53.6 °F 53.6 °F 100% 30.06 in 4.0 mi NE 6.9 mph - N/A   Mostly Cloudy
3:53 AM 53.1 °F 53.1 °F 100% 30.04 in 5.0 mi NE 6.9 mph - N/A   Mostly Cloudy
4:05 AM 53.6 °F 51.8 °F 94% 30.06 in 6.0 mi NE 6.9 mph - N/A   Scattered Clouds
4:53 AM 50.0 °F 48.9 °F 96% 30.06 in 6.0 mi South 3.5 mph - N/A   Clear
5:33 AM 50.0 °F 50.0 °F 100% 30.07 in 1.8 mi ESE 4.6 mph - N/A   Clear
5:36 AM 50.0 °F 48.2 °F 94% 30.07 in 0.8 mi ESE 3.5 mph - N/A   Mist
5:49 AM 50.0 °F 50.0 °F 100% 30.07 in 0.2 mi East 4.6 mph - N/A Fog Fog
5:53 AM 50.0 °F 48.9 °F 96% 30.08 in 0.2 mi East 5.8 mph - N/A Fog Fog
6:05 AM 50.0 °F 50.0 °F 100% 30.07 in 1.0 mi ESE 6.9 mph - N/A   Overcast
6:07 AM 50.0 °F 50.0 °F 100% 30.07 in 2.0 mi East 6.9 mph - N/A   Overcast
6:15 AM 51.8 °F 51.8 °F 100% 30.07 in 3.0 mi East 5.8 mph - N/A   Overcast
6:25 AM 51.8 °F 51.8 °F 100% 30.07 in 4.0 mi East 6.9 mph - N/A   Overcast
6:53 AM 53.1 °F 53.1 °F 100% 30.08 in 5.0 mi East 5.8 mph - N/A   Overcast
7:53 AM 54.0 °F 52.0 °F 93% 30.07 in 8.0 mi East 4.6 mph - N/A   Overcast
8:53 AM 55.9 °F 52.0 °F 87% 30.08 in 8.0 mi ESE 9.2 mph - N/A   Overcast
9:35 AM 59.0 °F 51.8 °F 77% 30.07 in 10.0 mi East 10.4 mph - N/A   Overcast
9:53 AM 60.1 °F 52.0 °F 75% 30.07 in 10.0 mi East 10.4 mph - N/A   Overcast
10:53 AM 61.0 °F 52.0 °F 72% 30.07 in 10.0 mi SE 8.1 mph - N/A   Mostly Cloudy
11:15 AM 64.4 °F 51.8 °F 64% 30.06 in 10.0 mi ESE 9.2 mph - N/A   Scattered Clouds
11:53 AM 66.0 °F 50.0 °F 56% 30.06 in 10.0 mi East 10.4 mph 18.4 mph N/A   Scattered Clouds
12:53 PM 68.0 °F 48.0 °F 49% 30.05 in 10.0 mi ESE 11.5 mph - N/A   Partly Cloudy
1:53 PM 66.9 °F 46.0 °F 47% 30.05 in 10.0 mi SE 10.4 mph - N/A   Mostly Cloudy
2:53 PM 71.1 °F 43.0 °F 36% 30.05 in 10.0 mi ENE 9.2 mph - 0.00 in   Mostly Cloudy
3:53 PM 64.9 °F 48.9 °F 56% 30.05 in 8.0 mi East 15.0 mph - 0.00 in Rain Light Rain
4:53 PM 66.9 °F 52.0 °F 59% 30.04 in 10.0 mi East 15.0 mph - 0.01 in   Mostly Cloudy
5:53 PM 68.0 °F 46.9 °F 47% 30.04 in 10.0 mi East 15.0 mph 20.7 mph N/A   Clear
6:53 PM 66.0 °F 46.0 °F 48% 30.04 in 10.0 mi East 11.5 mph - N/A   Overcast
7:53 PM 64.0 °F 46.9 °F 54% 30.05 in 10.0 mi East 12.7 mph - N/A   Mostly Cloudy
8:53 PM 61.0 °F 48.0 °F 62% 30.05 in 10.0 mi East 12.7 mph - N/A   Overcast
9:53 PM 59.0 °F 46.0 °F 62% 30.07 in 10.0 mi ENE 10.4 mph - N/A   Mostly Cloudy
10:53 PM 59.0 °F 46.0 °F 62% 30.07 in 10.0 mi East 11.5 mph - N/A   Overcast
11:53 PM 57.0 °F 45.0 °F 64% 30.07 in 10.0 mi East 10.4 mph - N/A   Mostly Cloudy